Regional Weather Roundup
Issued by NWS

Home | Current Version | Previous Version | Text Only | Print | Product List | Glossary Off
Versions: 1 2 3 4 5 6 7 8 9 10 11 12 13 14 15 16 17 18 19 20 21 22 23 24 25 26 27 28 29 30 31 32 33 34 35 36 37 38 39 40 41 42 43 44 45 46 47 48 49 50

000
ASUS43 KIND 290609
RWRIN

WEATHER ROUNDUP FOR INDIANA
NATIONAL WEATHER SERVICE INDIANAPOLIS IN
200 AM EDT MON MAY 29 2017

NOTE: "FAIR" INDICATES FEW OR NO CLOUDS BELOW 12,000 FEET WITH NO
SIGNIFICANT WEATHER AND/OR OBSTRUCTIONS TO VISIBILITY.

* - STATION DOES NOT REPORT WEATHER SUCH AS PRECIPITATION OR FOG.

+ - STATION NOT QUALITY CONTROLLED BY THE NATIONAL WEATHER SERVICE.
    USE DATA WITH CAUTION...ESPECIALLY DEWPOINT AND RELATIVE
    HUMIDITY OBSERVATIONS.

INZ001>003-010>013-019-020-290700-
NORTHWEST INDIANA

CITY           SKY/WX    TMP DP  RH WIND       PRES   REMARKS
GARY /AIRPORT/ MOCLDY    63  52  67 SW3       29.79R
KNOX *+        CLEAR     57  46  67 SW6       29.80R
LA PORTE +     CLEAR     58  54  85 SW5       29.80R
6HR MIN TEMP:  56; 6HR MAX TEMP:  69;

MICHIGAN CITY+ CLEAR     54  54 100 CALM      29.78S FOG
MONTICELLO +   CLEAR     59  53  80 CALM      29.81R
6HR MIN TEMP:  58; 6HR MAX TEMP:  74;

RENSSELAER +   CLEAR     59  52  77 SW5       29.82S
VALPARAISO     CLEAR     61  54  77 SW5       29.81R
6HR MIN TEMP:  60; 6HR MAX TEMP:  73; 6HR PCP: TRACE;


$$

LMZ046-743>745-290700-
SOUTHERN LAKE MICHIGAN

STATION/POSITION TIME  TEMP    WIND        PRES    WAVE
                       AIR SEA DIR/SP/G            HT
                 (UTC) (F)     (DEG/KT/KT) (MB)    (FT)
BURNS HARBOR     0540   64     190/  6/  8 1008.8S
MICHIGAN CITY    0540   64     190/  7/  7   N/A
5NW MICH CITY    0600   61 58  210/  6/  8   N/A     0

$$

INZ004-005-014>016-021>024-290700-
NORTH CENTRAL INDIANA

CITY           SKY/WX    TMP DP  RH WIND       PRES   REMARKS
GOSHEN         CLEAR     58  54  86 SW8       29.79R
6HR MIN TEMP:  57; 6HR MAX TEMP:  70;

LOGANSPORT +   CLEAR     59  54  82 SW6       29.82F
PERU/GRISSOM   PTCLDY    59  56  91 SW6       29.81S
6HR MIN TEMP:  58; 6HR MAX TEMP:  70;

ROCHESTER +    CLEAR     63  55  77 SW5       29.81S
SOUTH BEND     CLEAR     57  54  89 SW7       29.79R
6HR MIN TEMP:  56; 6HR MAX TEMP:  68;

WARSAW +       CLEAR     59  57  94 CALM      29.81R

$$

INZ006>009-017-018-025>027-290700-
NORTHEAST INDIANA

CITY           SKY/WX    TMP DP  RH WIND       PRES   REMARKS
ANGOLA *+      PTCLDY    57  46  67 CALM      29.78R
AUBURN +       CLEAR     59  55  88 CALM      29.81R
FORT WAYNE     PTCLDY    60  58  92 SW8       29.80R
6HR MIN TEMP:  59; 6HR MAX TEMP:  64; 6HR PCP:  0.47;

HUNTINGTON +   PTCLDY   N/A N/A N/A SW3       29.77F
                                      6HR PCP:  0.07;

KENDALLVILLE + CLEAR     58  56  90 SW7       29.80R

$$

INZ028-029-035-036-043>045-051>053-290700-
WEST CENTRAL INDIANA

CITY           SKY/WX    TMP DP  RH WIND       PRES   REMARKS
CRAWFORDSVL +  PTCLDY   -20 -21  95 SW8       29.85S WCI -39
6HR MIN TEMP: -21; 6HR MAX TEMP: -15; 6HR PCP:  0.02;

GREENCASTLE +  MOCLDY    61  55  82 W5        29.86S
LAFAYETTE      CLEAR     57  56  96 W3        29.82F
6HR MIN TEMP:  57; 6HR MAX TEMP:  73;

TERRE HAUTE    PTCLDY    64  56  75 NW5       29.85F
6HR MIN TEMP:  62; 6HR MAX TEMP:  76;


$$

INZ030>032-037>040-046>048-054>057-064-065-290700-
CENTRAL INDIANA

CITY           SKY/WX    TMP DP  RH WIND       PRES   REMARKS
CP ATTERBURY + CLEAR     59  59 100 SW5       29.86S
FRANKFORT +    CLOUDY    63  58  82 W7        29.85S
6HR MIN TEMP:  63; 6HR MAX TEMP:  75;

GREENWOOD *+   CLEAR     63  62  97 SW3       29.85S
6HR MIN TEMP:  62; 6HR MAX TEMP:  65;

INDIANAPOLIS   CLEAR     61  60  97 SW7       29.83F FOG
6HR MIN TEMP:  61; 6HR MAX TEMP:  67; 6HR PCP: TRACE;

-EAGLE CREEK   CLEAR     64  61  90 SW5       29.83S
6HR MIN TEMP:  62; 6HR MAX TEMP:  68; 6HR PCP: TRACE;

KOKOMO +       MOCLDY    60  56  86 SW7       29.83S
6HR MIN TEMP:  60; 6HR MAX TEMP:  69;

MARION +       PTCLDY    61  55  82 SW12      29.83R
MT COMFORT *+    N/A    N/A N/A N/A MISG        N/A
SHELBYVILLE    CLEAR     62  58  86 SW5       29.83F FOG
6HR MIN TEMP:  62; 6HR MAX TEMP:  66; 6HR PCP:  0.16;

ZIONSVILLE +   CLEAR     59  56  88 W3        29.85S
6HR MIN TEMP:  57; 6HR MAX TEMP:  67;


$$

INZ033-034-041-042-049-050-058-059-290700-
EAST CENTRAL INDIANA

CITY           SKY/WX    TMP DP  RH WIND       PRES   REMARKS
MUNCIE         PTCLDY    63  60  90 SW7       29.83R
6HR MIN TEMP:  63; 6HR MAX TEMP:  72; 6HR PCP: TRACE;

RICHMOND +     CLEAR     59  59 100 SW6       29.85R

$$

INZ060-061-067>069-081>083-085>088-290700-
SOUTHWEST INDIANA

CITY           SKY/WX    TMP DP  RH WIND       PRES   REMARKS
EVANSVILLE     CLOUDY    63  60  90 SW5       29.90R
6HR MIN TEMP:  62; 6HR MAX TEMP:  76;

HUNTINGBURG *+ CLEAR     65  63  93 SW6       29.89S
6HR MIN TEMP:  64; 6HR MAX TEMP:  72;

WASHINGTON +   CLEAR     65  60  84 SW7       29.87S
6HR MIN TEMP:  65; 6HR MAX TEMP:  74;


$$

INZ062-063-066-070>080-084-089>092-290700-
SOUTH CENTRAL AND SOUTHEAST INDIANA

CITY           SKY/WX    TMP DP  RH WIND       PRES   REMARKS
BEDFORD +      CLEAR     64  61  88 SW6       29.87R
BLOOMINGTON    CLEAR     64  60  87 W3        29.86S
6HR MIN TEMP:  64; 6HR MAX TEMP:  74; 6HR PCP:  0.05;

MADISON *+     PTCLDY    63  61  94 CALM      29.89S
NORTH VERNON + CLEAR     59  59 100 S3        29.87S
SEYMOUR +      CLEAR     64  63  94 SE3       29.87S FOG

$$





USA.gov is the U.S. government's official web portal to all federal, state and local government web resources and services.